Location: Góry Miechowskie
(50.3599°N, 20.1803°E)
Time: 21:56:56
(UTC+00:00)

Tiros 1 despin weight - Pass Details

Date: 17 September 2024
Orbit: 572 x 614 km, 48.2° (Epoch: 12 October)

Event Time Altitude Azimuth Distance (km) Brightness Sun altitude
Rises 00:47:47 0° 210° (SSW) 2,851 - -30.2°
Reaches altitude 10° 00:50:29 10° 195° (SSW) 1,958 - -29.9°
Maximum altitude 00:53:53 21° 145° (SE) 1,370 - -29.6°
Exits shadow 00:55:57 16° 110° (ESE) 1,617 ? -29.4°
Drops below altitude 10° 00:57:20 10° 96° (E) 1,977 ? -29.2°
Sets 01:00:04 0° 81° (E) 2,888 ? -28.9°
